Regional Weather Roundup
Issued by NWS

Home | Current Version | Previous Version | Graphics & Text | Print | Product List | Glossary Off
Versions: 1 2 3 4 5 6 7 8 9 10 11 12 13 14 15 16 17 18 19 20 21 22 23 24 25 26 27 28 29 30 31 32 33 34 35 36 37 38 39 40 41 42 43 44 45 46 47 48 49 50

000
ASUS44 KFWD 210115
RWRTX
NORTH TEXAS HOURLY WEATHER ROUNDUP
NATIONAL WEATHER SERVICE FORT WORTH TX
800 PM CDT SUN APR 20 2014

NOTE: "FAIR" INDICATES FEW OR NO CLOUDS BELOW 12,000 FEET WITH NO
SIGNIFICANT WEATHER AND/OR OBSTRUCTIONS TO VISIBILITY.

TXZ118-119-210200-
DALLAS/FORT WORTH METROPLEX

CITY           SKY/WX    TMP DP  RH WIND       PRES   REMARKS
DFW AIRPORT    LGT RAIN  63  60  90 NE9       30.05F FOG
DALLAS LOVE    TSTM      64  61  90 NE6       30.05R
FTW MEACHAM    LGT RAIN  64  62  93 NE9       30.04F FOG
DAL-EXECUTIVE  LGT RAIN  64  61  88 N6        30.06R FOG
FTW-ALLIANCE   LGT RAIN  61  60  97 E6        30.05R
FTW-NAS-JRB    CLOUDY    67  61  81 NE10      30.09S
FTW-SPINKS     RAIN      64  62  92 CALM      30.07R
ARLINGTON      LGT RAIN  64  63  94 N6        30.05S
ADDISON        RAIN      64  59  82 N7        30.08R
MESQUITE       CLOUDY    70  57  64 NE3       30.04F
LANCASTER      CLOUDY    70  56  60 CALM      30.05S
$$

TXZ091>094-102>105-117-120-121-131>134-210200-
NORTH CENTRAL TEXAS

CITY           SKY/WX    TMP DP  RH WIND       PRES   REMARKS
SHRMAN/DENISON LGT RAIN  62  59  90 SE7       30.08F
GAINESVILLE    CLOUDY    60  59  96 SE7       30.08S FOG
BOWIE          RAIN      60  59  97 E5        30.03S
BRIDGEPORT     HVY RAIN  62  61  99 SE6       30.07R
DECATUR        RAIN      60  60  99 E8        30.07R
DENTON         LGT RAIN  60  59  96 NE7       30.06R FOG
MCKINNEY       CLOUDY    63  59  87 NE5       30.07F
GREENVILLE     CLOUDY    68  57  68 CALM      30.07R
ROCKWALL       CLOUDY    69  59  70 NE3       30.05S
TERRELL        CLOUDY    70  59  68 NE6       30.05S
WAXAHACHIE     CLOUDY    70  56  60 CALM      30.05R
CLEBURNE       CLOUDY    66  64  94 N3        30.06S FOG
GRANBURY       LGT RAIN  66  64  92 E5        30.05S
$$

TXZ083>090-098>101-113>116-127>130-139>142-154-155-210200-
WESTERN NORTH TEXAS

CITY           SKY/WX    TMP DP  RH WIND       PRES   REMARKS
WICHITA FALLS  CLOUDY    63  58  83 SE17      29.99F
WF-KICKAPOO    PTCLDY    64  58  82 SE12      30.03F
VERNON         MOCLDY    67  59  75 SE17      29.97F
ABILENE        CLOUDY    67  62  84 SE10      30.01S
ABILENE-DYESS  CLOUDY    68  63  84 SE10      30.00S
BRECKENRIDGE   RAIN      66  66  98 SE8       30.02S
GRAHAM         CLOUDY    64  62  95 SE3       30.01F FOG
MINERAL WELLS  LGT RAIN  64  63  96 E6        30.02S FOG
STEPHENVILLE   CLOUDY    65  62  88 S7        30.06S
COMANCHE       CLOUDY    65  64  95 S9        30.04S
BROWNWOOD      CLOUDY    66  64  94 SE9       30.03F
COLEMAN        CLOUDY    65  64  93 S9        30.03S
$$

TXZ143>147-156>162-174-175-210200-
CENTRAL TEXAS

CITY           SKY/WX    TMP DP  RH WIND       PRES   REMARKS
WACO           CLOUDY    71  59  65 S14       30.04R
WACO-MCGREGOR  MOCLDY    66  57  72 SW3       30.06R
HILLSBORO      LGT RAIN  73  56  56 S6        30.04R
CORSICANA      CLOUDY    73  57  57 SE5       30.04S
MEXIA          CLOUDY    72  59  64 CALM      30.04R
HEARNE         CLOUDY    75  57  53 SE5       30.04S
CAMERON        CLOUDY    74  58  57 S5        30.03F
TEMPLE         CLOUDY    72  57  60 S7        30.07R
KILLEEN        CLOUDY    68  63  83 SE6       30.03F
KILLEEN-SKYLRK PTCLDY   N/A N/A N/A S6        30.03R
FORT HOOD      CLOUDY    71  60  68 SE5       30.03F
GATESVILLE     CLOUDY    70  63  78 S3        30.06S
HAMILTON       CLOUDY    66  66 100 SE8       30.05S
LAMPASAS       CLOUDY    68  64  86 SE3       30.04S
$$

TXZ095>097-106>112-122>126-135>138-148>153-164>167-210200-
EAST TEXAS

CITY           SKY/WX    TMP DP  RH WIND       PRES   REMARKS
PARIS          CLOUDY    66  57  72 W8        30.09R
SULPHUR SPRNGS LGT RAIN  69  61  75 NW5       30.09R
CLARKSVILLE    CLOUDY    72  60  67 CALM      30.07S
MOUNT PLEASANT CLOUDY    72  59  64 CALM      30.08R
GILMER         MOCLDY    72  61  68 CALM      30.08R
MINEOLA        CLOUDY    72  63  73 CALM      30.06S
TYLER          MOCLDY    75  54  47 CALM      30.05S
LONGVIEW       PTCLDY    71  58  63 CALM      30.05R
MARSHALL       PTCLDY    71  62  73 CALM      30.08R
ATHENS         PTCLDY    70  55  60 CALM      30.04R
PALESTINE      CLEAR     75  55  48 CALM      30.07S
JACKSONVILLE   CLOUDY    73  52  47 S3        30.08S
HENDERSON      MOCLDY    72  58  61 CALM      30.07R
NACOGDOCHES    MOCLDY    73  55  53 SW3       30.06S
LUFKIN         MOCLDY    77  55  46 S5        30.05S
$$

SUPPLEMENTAL OBSERVATIONS (CENTRAL)

CITY           SKY/WX    TMP DP  RH WIND       PRES   REMARKS
LAKE TEXOMA      N/A     61  61 100 E3          N/A
CADDO GRASSLND   N/A     64  57  77 W6          N/A
PALESTINE        N/A     72  57  60 CALM        N/A
LAKE LIMESTONE   N/A     73  54  49 S2          N/A
MCGREGOR         N/A     68  63  83 S5          N/A
TEMPLE           N/A     72  57  60 S8          N/A
$$

SUPPLEMENTAL OBSERVATIONS (WEST)

CITY           SKY/WX    TMP DP  RH WIND       PRES   REMARKS
MILLERS CREEK    N/A     66  61  82 SE15        N/A
POSSUM KINGDOM   N/A    N/A N/A N/A E5          N/A
LBJ GRASSLAND    N/A     61  57  88 E7          N/A
GRANBURY         N/A     64  61  88 SE3         N/A
COMANCHE         N/A     64  59  82 S10         N/A
HAMBY            N/A     66  61  82 SE6         N/A
IVIE RESERVOIR   N/A     66  63  88 SE8         N/A
COLORADO BEND    N/A     66  61  82 SE5         N/A
$$

SUPPLEMENTAL OBSERVATIONS (EAST)

CITY           SKY/WX    TMP DP  RH WIND       PRES   REMARKS
TEXARKANA        N/A     68  61  77 CALM        N/A
LINDEN           N/A     72  61  68 CALM        N/A
$$

SUPPLEMENTAL OBSERVATIONS ARE A COLLECTION OF AUTOMATED INSTRUMENTS
THAT ARE MAINTAINED BY A VARIETY OF FEDERAL AND STATE AGENCIES.
CERTAIN ELEMENTS...SUCH AS HUMIDITY VALUES AND SUSTAINED WIND
SPEEDS...MAY BE APPROXIMATED.




USA.gov is the U.S. government's official web portal to all federal, state and local government web resources and services.